Weather History for Ainsworth, NE

Change the Weather History Date:

Monday, November 11, 2013

  Actual Average Record
Temperature  
Mean Temperature 24 °F -  
Max Temperature 35 °F 47 °F 80 °F (2005)
Min Temperature 14 °F 25 °F 5 °F (2014)
Degree Days  
Heating Degree Days 40    
Moisture  
Dew Point 19 °F    
Average Humidity 78    
Maximum Humidity 96    
Minimum Humidity 57    
Precipitation  
Precipitation 0.00 in - - ()
Sea Level Pressure  
Sea Level Pressure 30.47 in    
Wind  
Wind Speed 11 mph (North)    
Max Wind Speed 21 mph    
Max Gust Speed 26 mph    
Visibility 10 miles    
Events Snow    
Averages and records for this station are not official NWS values.
T = Trace of Precipitation, MM = Missing Value Source: NWS Daily Summary

Daily Weather History Graph

Daily Weather History Graph

Search for Another Location

Airport:

Trip Planner

Search our weather history database for the weather conditions in past years. The results will help you decide how hot, cold, wet, or windy it might be!

Date:

Astronomy

Nov. 11, 2013 Rise Set
Actual Time 7:26 AM CST 5:20 PM CST
Civil Twilight 6:56 AM CST 5:50 PM CST
Nautical Twilight 6:22 AM CST 6:24 PM CST
Astronomical Twilight 5:49 AM CST 6:57 PM CST
Moon 2:09 PM CST (11/11) 1:05 AM CST (11/11)
Length of Visible Light 10h 54m
Length of Day
9h 54m
Waxing Gibbous, 66% of the Moon is Illuminated
Nov 11
Waxing Gibbous
Nov 17
Full
Nov 25
Last Quarter
Dec 2
New
Dec 9
First Quarter

Hourly Weather History & Observations

Time (CST) Temp. Windchill Dew Point Humidity Pressure Visibility Wind Dir Wind Speed Gust Speed Precip Events Conditions
12:15 AM 32.5 °F 25.5 °F 29.8 °F 90% 30.13 in 10.0 mi North 8.1 mph - N/A   Scattered Clouds
12:35 AM 34.0 °F 26.6 °F 32.0 °F 92% 30.15 in 10.0 mi North 9.2 mph - N/A   Clear
12:55 AM 34.2 °F 26.8 °F 32.0 °F 92% 30.16 in 10.0 mi North 9.2 mph - N/A   Clear
1:15 AM 34.7 °F 27.5 °F 32.4 °F 91% 30.16 in 10.0 mi North 9.2 mph - N/A   Scattered Clouds
1:35 AM 35.1 °F 27.4 °F 32.5 °F 91% 30.17 in 10.0 mi North 10.4 mph - N/A   Clear
1:55 AM 34.5 °F 27.3 °F 32.0 °F 90% 30.17 in 10.0 mi North 9.2 mph - N/A   Clear
2:15 AM 33.8 °F 27.0 °F 31.8 °F 92% 30.17 in 10.0 mi North 8.1 mph - N/A   Clear
2:35 AM 34.0 °F 27.2 °F 32.0 °F 92% 30.17 in 10.0 mi North 8.1 mph - N/A   Scattered Clouds
2:55 AM 34.2 °F 26.2 °F 32.0 °F 92% 30.18 in 10.0 mi NNE 10.4 mph - N/A   Mostly Cloudy
3:15 AM 34.0 °F 26.0 °F 31.6 °F 91% 30.19 in 10.0 mi North 10.4 mph - N/A   Overcast
3:35 AM 32.9 °F 22.8 °F 30.9 °F 92% 30.22 in 10.0 mi North 15.0 mph 21.9 mph N/A   Overcast
3:55 AM 32.0 °F 21.6 °F 30.2 °F 93% 30.23 in 10.0 mi NNE 15.0 mph 24.2 mph N/A   Overcast
4:15 AM 31.5 °F 20.5 °F 29.5 °F 92% 30.24 in 10.0 mi NNE 16.1 mph 23.0 mph N/A   Overcast
4:35 AM 30.9 °F 18.4 °F 29.5 °F 94% 30.25 in 7.0 mi North 20.7 mph 26.5 mph N/A   Overcast
4:55 AM 29.5 °F 18.0 °F 28.2 °F 95% 30.27 in 7.0 mi NNE 16.1 mph - N/A   Overcast
5:15 AM 28.6 °F 15.3 °F 27.5 °F 96% 30.29 in 7.0 mi North 20.7 mph 26.5 mph N/A   Overcast
5:35 AM 27.9 °F 17.3 °F 26.4 °F 94% 30.31 in 10.0 mi NNE 12.7 mph - N/A   Overcast
5:55 AM 27.1 °F 14.5 °F 25.3 °F 93% 30.32 in 10.0 mi NNE 17.3 mph 23.0 mph N/A   Overcast
6:15 AM 26.6 °F 13.4 °F 23.9 °F 90% 30.33 in 10.0 mi North 18.4 mph 25.3 mph N/A   Overcast
6:35 AM 26.1 °F 13.6 °F 22.6 °F 87% 30.34 in 10.0 mi North 16.1 mph 21.9 mph N/A   Overcast
6:55 AM 25.5 °F 14.9 °F 21.9 °F 86% 30.35 in 10.0 mi NNE 11.5 mph 17.3 mph N/A   Overcast
7:15 AM 25.3 °F 13.1 °F 21.7 °F 86% 30.36 in 10.0 mi North 15.0 mph 21.9 mph N/A   Overcast
7:35 AM 24.8 °F 12.4 °F 20.5 °F 84% 30.38 in 10.0 mi NNE 15.0 mph - N/A   Overcast
7:55 AM 24.3 °F 11.2 °F 20.1 °F 84% 30.40 in 10.0 mi NNE 16.1 mph - N/A   Overcast
8:15 AM 24.1 °F 12.5 °F 20.1 °F 85% 30.40 in 10.0 mi NNE 12.7 mph 18.4 mph N/A   Overcast
8:35 AM 23.5 °F 11.8 °F 19.4 °F 84% 30.43 in 10.0 mi NNE 12.7 mph - N/A   Overcast
8:55 AM 23.4 °F 10.1 °F 19.2 °F 84% 30.44 in 10.0 mi North 16.1 mph 21.9 mph N/A   Overcast
9:15 AM 22.8 °F 10.4 °F 18.5 °F 83% 30.45 in 10.0 mi NNE 13.8 mph 19.6 mph N/A   Overcast
9:35 AM 23.0 °F 11.1 °F 18.0 °F 81% 30.46 in 10.0 mi North 12.7 mph 19.6 mph N/A   Overcast
9:55 AM 22.6 °F 10.7 °F 17.4 °F 80% 30.46 in 10.0 mi NNE 12.7 mph - N/A   Overcast
10:15 AM 22.6 °F 9.2 °F 17.1 °F 79% 30.48 in 10.0 mi North 16.1 mph 21.9 mph N/A   Overcast
10:35 AM 23.0 °F 10.6 °F 17.1 °F 78% 30.49 in 10.0 mi NNE 13.8 mph - N/A   Overcast
10:55 AM 23.9 °F 11.7 °F 16.7 °F 74% 30.50 in 10.0 mi North 13.8 mph 18.4 mph N/A   Overcast
11:15 AM 23.4 °F 12.2 °F 16.0 °F 73% 30.50 in 10.0 mi North 11.5 mph 20.7 mph N/A   Overcast
11:35 AM 24.1 °F 11.5 °F 16.5 °F 73% 30.51 in 10.0 mi North 15.0 mph 20.7 mph N/A   Overcast
11:55 AM 23.9 °F 12.3 °F 16.5 °F 73% 30.52 in 10.0 mi North 12.7 mph 18.4 mph N/A   Overcast
12:15 PM 25.5 °F 13.8 °F 17.2 °F 71% 30.52 in 10.0 mi North 13.8 mph 20.7 mph N/A   Overcast
12:35 PM 25.3 °F 14.1 °F 17.2 °F 71% 30.52 in 10.0 mi North 12.7 mph - N/A   Overcast
12:55 PM 25.3 °F 13.1 °F 17.6 °F 72% 30.53 in 10.0 mi North 15.0 mph - N/A   Overcast
1:15 PM 25.2 °F 12.4 °F 18.3 °F 75% 30.52 in 10.0 mi North 16.1 mph - N/A Snow Light Snow
1:35 PM 25.5 °F 13.3 °F 18.0 °F 73% 30.53 in 10.0 mi North 15.0 mph - N/A Snow Light Snow
1:55 PM 25.5 °F 13.3 °F 17.8 °F 72% 30.54 in 10.0 mi North 15.0 mph 18.4 mph N/A   Overcast
2:15 PM 25.3 °F 12.6 °F 16.9 °F 70% 30.54 in 10.0 mi North 16.1 mph - N/A   Overcast
2:35 PM 24.4 °F 13.0 °F 16.2 °F 71% 30.54 in 10.0 mi North 12.7 mph - N/A   Overcast
2:55 PM 25.2 °F 13.3 °F 16.0 °F 68% 30.54 in 10.0 mi North 13.8 mph 19.6 mph N/A   Overcast
3:15 PM 24.6 °F 12.2 °F 14.9 °F 67% 30.55 in 10.0 mi North 15.0 mph 19.6 mph N/A   Scattered Clouds
3:35 PM 25.2 °F 13.3 °F 14.4 °F 64% 30.55 in 10.0 mi North 13.8 mph 21.9 mph N/A   Clear
3:55 PM 24.6 °F 12.2 °F 12.4 °F 60% 30.56 in 10.0 mi North 15.0 mph 19.6 mph N/A   Clear
4:15 PM 24.1 °F 12.0 °F 10.8 °F 57% 30.57 in 10.0 mi North 13.8 mph 19.6 mph N/A   Clear
4:35 PM 23.9 °F 12.3 °F 11.3 °F 59% 30.57 in 10.0 mi North 12.7 mph - N/A   Scattered Clouds
4:55 PM 23.5 °F 13.7 °F 11.5 °F 60% 30.58 in 10.0 mi North 9.2 mph - N/A   Scattered Clouds
5:15 PM 22.8 °F 11.5 °F 10.2 °F 59% 30.60 in 10.0 mi North 11.5 mph - N/A   Clear
5:35 PM 22.1 °F 11.3 °F 9.9 °F 59% 30.60 in 10.0 mi North 10.4 mph - N/A   Clear
5:55 PM 22.1 °F 12.8 °F 10.0 °F 60% 30.62 in 10.0 mi North 8.1 mph - N/A   Clear
6:15 PM 22.1 °F 13.7 °F 10.0 °F 60% 30.62 in 10.0 mi North 6.9 mph - N/A   Clear
6:35 PM 21.2 °F 12.6 °F 10.8 °F 64% 30.63 in 10.0 mi North 6.9 mph - N/A   Clear
6:55 PM 19.9 °F 12.1 °F 11.3 °F 69% 30.64 in 10.0 mi North 5.8 mph - N/A   Clear
7:15 PM 19.8 °F 11.9 °F 12.0 °F 72% 30.64 in 10.0 mi NNW 5.8 mph - N/A   Clear
7:35 PM 18.5 °F 10.4 °F 12.6 °F 78% 30.65 in 10.0 mi North 5.8 mph - N/A   Clear
7:55 PM 18.9 °F 12.1 °F 12.9 °F 78% 30.66 in 10.0 mi North 4.6 mph - N/A   Clear
8:15 PM 18.1 °F 12.9 °F 11.1 °F 74% 30.66 in 10.0 mi North 3.5 mph - N/A   Clear
8:35 PM 18.0 °F 12.7 °F 10.4 °F 72% 30.67 in 10.0 mi North 3.5 mph - N/A   Clear
8:55 PM 18.0 °F - 9.5 °F 70% 30.67 in 10.0 mi Calm Calm - N/A   Clear
9:15 PM 17.6 °F 10.7 °F 8.6 °F 68% 30.69 in 10.0 mi NNW 4.6 mph - N/A   Clear
9:35 PM 17.2 °F 11.9 °F 9.0 °F 70% 30.71 in 10.0 mi NNW 3.5 mph - N/A   Clear
9:55 PM 16.7 °F - 9.1 °F 72% 30.71 in 10.0 mi Calm Calm - N/A   Clear
10:15 PM 16.7 °F - 9.0 °F 72% 30.72 in 10.0 mi Calm Calm - N/A   Clear
10:35 PM 15.8 °F - 9.3 °F 76% 30.72 in 10.0 mi Calm Calm - N/A   Clear
10:55 PM 15.4 °F - 9.5 °F 77% 30.72 in 10.0 mi Calm Calm - N/A   Clear
11:15 PM 15.8 °F - 9.1 °F 75% 30.72 in 10.0 mi Calm Calm - N/A   Clear
11:35 PM 14.9 °F 9.2 °F 9.7 °F 80% 30.72 in 10.0 mi West 3.5 mph - N/A   Clear
11:55 PM 14.5 °F 8.8 °F 9.9 °F 82% 30.72 in 10.0 mi West 3.5 mph - N/A   Clear